TimeCDT,TemperatureF,Dew PointF,Humidity,Sea Level PressureIn,VisibilityMPH,Wind Direction,Wind SpeedMPH,Gust SpeedMPH,PrecipitationIn,Events,Conditions,WindDirDegrees,DateUTC
12:53 AM,66.0,61.0,84,30.03,10.0,North,4.6,-,N/A,,Clear,360,2013-07-11 05:53:00
1:53 AM,66.0,62.1,87,30.03,10.0,North,4.6,-,N/A,,Clear,10,2013-07-11 06:53:00
2:53 AM,64.9,60.1,84,30.05,10.0,NNW,4.6,-,N/A,,Clear,340,2013-07-11 07:53:00
3:53 AM,64.0,59.0,84,30.05,10.0,Calm,Calm,-,N/A,,Clear,0,2013-07-11 08:53:00
4:53 AM,64.0,57.9,80,30.04,10.0,ENE,3.5,-,N/A,,Clear,60,2013-07-11 09:53:00
5:53 AM,64.9,57.9,78,30.05,10.0,Calm,Calm,-,N/A,,Clear,0,2013-07-11 10:53:00
6:53 AM,66.9,59.0,76,30.06,10.0,Calm,Calm,-,N/A,,Partly Cloudy,0,2013-07-11 11:53:00
7:53 AM,70.0,60.1,71,30.07,10.0,SE,3.5,-,N/A,,Clear,140,2013-07-11 12:53:00
8:53 AM,75.0,57.9,55,30.10,10.0,SE,11.5,-,N/A,,Clear,140,2013-07-11 13:53:00
9:53 AM,79.0,57.0,47,30.07,10.0,ESE,12.7,19.6,N/A,,Clear,120,2013-07-11 14:53:00
10:53 AM,81.0,57.0,44,30.08,10.0,ESE,11.5,-,N/A,,Clear,110,2013-07-11 15:53:00
11:53 AM,82.0,57.0,42,30.09,10.0,South,5.8,-,N/A,,Clear,170,2013-07-11 16:53:00
12:53 PM,84.0,57.0,40,30.07,10.0,East,5.8,-,N/A,,Clear,100,2013-07-11 17:53:00
1:53 PM,86.0,57.0,37,30.04,10.0,SE,8.1,-,N/A,,Clear,140,2013-07-11 18:53:00
2:53 PM,87.1,57.0,36,30.03,10.0,SE,8.1,-,N/A,,Clear,130,2013-07-11 19:53:00
3:53 PM,87.1,55.9,35,30.01,10.0,SSE,8.1,18.4,N/A,,Clear,150,2013-07-11 20:53:00
4:53 PM,88.0,55.9,34,30.00,10.0,SE,11.5,-,N/A,,Clear,130,2013-07-11 21:53:00
5:53 PM,87.1,57.0,36,29.99,10.0,SE,15.0,-,N/A,,Clear,130,2013-07-11 22:53:00
6:53 PM,86.0,57.9,38,29.97,10.0,East,11.5,-,N/A,,Clear,90,2013-07-11 23:53:00
7:53 PM,82.9,57.9,42,29.97,10.0,SE,10.4,-,N/A,,Clear,130,2013-07-12 00:53:00
8:53 PM,78.1,59.0,52,29.97,10.0,SE,5.8,-,N/A,,Clear,140,2013-07-12 01:53:00
9:53 PM,75.0,61.0,62,29.99,10.0,SSE,5.8,-,N/A,,Clear,150,2013-07-12 02:53:00
10:53 PM,73.0,60.1,64,30.00,10.0,SE,4.6,-,N/A,,Clear,130,2013-07-12 03:53:00
11:53 PM,72.0,59.0,64,30.00,10.0,SE,6.9,-,N/A,,Clear,140,2013-07-12 04:53:00